Home > Weather > Olongapo > Past weeks

Flag for Philippines Weather for the Past 2 Weeks in Olongapo, Philippines

Now
75 °F

Scattered clouds.


Feels Like: 77 °F
Forecast: 73 / 86 °F
Wind: 10 mph from Northeast

Location: Subic Bay Weather Station

Current Time: Feb 9, 2016 at 7:41:42 AM

Latest Report: Feb 9, 2016 at 7:00 AM


Visibility: N/A

Pressure: 29.92 "Hg

Humidity: 61%

Dew point: 61 °F

Location of OlongapoLocation

Historic Weather in Olongapo — Graph

°F

Olongapo Temperature Yesterday

Maximum temperature yesterday: 86 °F (at 2:00 PM)
Minimum temperature yesterday: 73 °F (at 5:00 AM)
Average temperature yesterday: 79 °F

High & Low Weather Summary for the Past Weeks

 TemperatureHumidityPressure
High91 °F (Jan 30, 3:00 PM)94% (Feb 8, 1:00 PM)30.09 "Hg (Feb 8, 1:00 PM)
Low73 °F (Jan 25, 8:00 AM)41% (Feb 2, 4:00 PM)29.74 "Hg (Feb 5, 3:00 PM)
Average81 °F67%29.90 "Hg
* Reported Jan 25 6:00 AM — Feb 9 6:00 AM, Olongapo, Weather by CustomWeather, © 2016

Note: Actual official high and low records may vary slightly from our data, if they occured in-between our weather recording intervals... More about our weather records

Advertising

Olongapo Weather History for the Previous 24 Hours

 ConditionsComfort  
Time TempWeatherWind HumidityBarometerVisibility
6:00 AM
Tue, Feb 9
73 °FPassing clouds.8 mph65%29.92 "HgN/A
5:00 AM73 °FPassing clouds.3 mph65%29.92 "HgN/A
2:00 AM73 °FPassing clouds.13 mph65%29.89 "HgN/A
1:00 AM75 °FPassing clouds.15 mph61%29.92 "HgN/A
12:00 AM75 °FPassing clouds.15 mph65%29.92 "HgN/A
11:00 PM
Mon, Feb 8
75 °FPassing clouds.18 mph65%29.92 "HgN/A
10:00 PM75 °FPassing clouds.18 mph65%29.92 "HgN/A
9:00 PM77 °FPassing clouds.14 mph61%29.92 "HgN/A
8:00 PM77 °FPassing clouds.14 mph61%29.92 "HgN/A
7:00 PM79 °FPassing clouds.12 mph58%29.89 "HgN/A
6:00 PM81 °FPassing clouds.14 mph58%29.86 "HgN/A
5:00 PM84 °FPassing clouds.8 mph48%29.86 "HgN/A
4:00 PM84 °FPassing clouds.17 mph51%29.83 "HgN/A
3:00 PM86 °FPassing clouds.18 mph46%29.86 "HgN/A
2:00 PM86 °FScattered clouds.14 mph49%29.86 "HgN/A
1:00 PM84 °FScattered clouds.20 mph94%29.89 "HgN/A
12:00 PM81 °FScattered clouds.18 mph58%29.92 "HgN/A
11:00 AM82 °FPassing clouds.17 mph51%29.95 "HgN/A
10:00 AM81 °FPassing clouds.17 mph51%29.95 "HgN/A
9:00 AM79 °FPassing clouds.17 mph54%29.95 "HgN/A
8:00 AM75 °FPassing clouds.10 mph61%29.95 "HgN/A
7:00 AM73 °FPassing clouds.8 mph61%29.95 "HgN/A
Weather by CustomWeather, © 2016

See weather overviewHow to use our weather pages